This is the latest recevied weather packets stored in our database for station/object KC3IEI-9. If no packets are shown the sender has not sent any weather packets the latest 10 day(s).
| Time | Temp. | Humidity | Pressure | Rain* | Wind** | Luminosity | Snow |
|---|---|---|---|---|---|---|---|
| 1788234275 | 27.78° C | 43% | 1032.9 hPa | 0.25 mm | - | - | - |
| 1788232474 | 28.33° C | 50% | 1028.9 hPa | 0.25 mm | - | - | - |
| 1788211598 | 40° C | 31% | 1013.2 hPa | 0 mm | - | - | - |
| 1788209798 | 41.11° C | 29% | 1012.2 hPa | 0 mm | - | - | - |
| 1788207997 | 41.67° C | 29% | 1010.8 hPa | 0 mm | - | - | - |
| 1788206197 | 41.67° C | 29% | 1008.2 hPa | 0 mm | - | - | - |
| 1788204396 | 41.11° C | 29% | 1006.9 hPa | 0 mm | - | - | - |
| 1788202596 | 40° C | 29% | 1006.8 hPa | 0 mm | - | - | - |
| 1788197195 | 36.11° C | 24% | 1013.4 hPa | 0 mm | - | - | - |
| 1788050599 | 30° C | 44% | 1022.2 hPa | 0 mm | - | - | - |
| 1788048799 | 30° C | 41% | 1021.3 hPa | 0 mm | - | - | - |
| 1787941583 | 29.44° C | 35% | 1021.3 hPa | 0 mm | - | - | - |
| 1787936182 | 28.89° C | 36% | 1028.1 hPa | 0 mm | - | - | - |
| 1787933287 | 31.11° C | 40% | 1026.9 hPa | 0 mm | - | - | - |
| 1787932044 | 30.56° C | 52% | 1028.1 hPa | 0 mm | - | - | - |
| 1787930244 | 30° C | 51% | 1029 hPa | 0 mm | - | - | - |
| 1787926794 | 27.78° C | 54% | 1030.5 hPa | 0 mm | - | - | - |
| 1787924994 | 27.78° C | 54% | 1030.2 hPa | 0 mm | - | - | - |
| 1787923193 | 27.22° C | 54% | 1030.5 hPa | 0 mm | - | - | - |
| 1787921393 | 26.67° C | 53% | 1030.6 hPa | 0 mm | - | - | - |
| 1787919592 | 26.11° C | 53% | 1030.4 hPa | 0 mm | - | - | - |
| 1787917912 | 26.11° C | 53% | 1030.5 hPa | 0 mm | - | - | - |
| 1787917792 | 26.11° C | 53% | 1030.5 hPa | 0 mm | - | - | - |
| 1787915991 | 25.56° C | 53% | 1030.3 hPa | 0 mm | - | - | - |
| 1787914191 | 26.11° C | 53% | 1029.7 hPa | 0 mm | - | - | - |
* Rain since midnight (hover to see other rain measurements)
** Current wind speed in m/s (hover to see current wind gust speed)